This demonstration page uses our WeatherBlox Daily Observations layout. Learn more.

Left ArrowRight Arrow

39.51506, -84.39828

Hourly Observations for April 18, 2021

Temp ( °F °C ) Dew Point ( °F °C ) Humidity (%) Winds ( mph kmh ) Pressure ( in mb ) Visibility ( mi km ) Precip ( " mm )
12:15 am 00:15 Cloudy with Mist and Fog 37 3 N/A N/A Calm 29.97 1015 1 1.60934 0 0
12:35 am 00:35 Mostly Cloudy with Mist and Fog 41 5 N/A N/A Calm 29.95 1014 0.75 1.207005 0 0
12:55 am 00:55 Mostly Cloudy with Fog 37 3 N/A N/A Calm 29.97 1015 0.25 0.402335 0 0
1:15 am 01:15 Mostly Cloudy with Fog 37 3 N/A N/A Calm 29.96 1014 0.25 0.402335 0 0
1:35 am 01:35 Clear with Mist and Fog 37 3 N/A N/A Calm 29.96 1014 4 6.43736 0 0
1:55 am 01:55 Mostly Cloudy with Fog 37 3 N/A N/A WNW 3 6 29.97 1015 0.5 0.80467 0 0
2:15 am 02:15 Mostly Cloudy with Fog 37 3 N/A N/A Calm 29.97 1015 0.25 0.402335 0 0
2:35 am 02:35 Mostly Cloudy with Fog 37 3 N/A N/A Calm 29.96 1014 0.5 0.80467 0 0
2:55 am 02:55 Mostly Cloudy with Mist and Fog 36 2 N/A N/A Calm 29.96 1015 0.75 1.207005 0 0
3:15 am 03:15 Mostly Cloudy with Mist and Fog 36 2 N/A N/A Calm 29.96 1015 0.75 1.207005 0 0
3:35 am 03:35 Mostly Cloudy with Fog 36 2 N/A N/A Calm 29.96 1015 0.5 0.80467 0 0
3:55 am 03:55 Mostly Cloudy with Fog 36 2 N/A N/A Calm 29.96 1015 0.25 0.402335 0 0
4:15 am 04:15 Mostly Cloudy with Mist and Fog 36 2 N/A N/A Calm 29.97 1015 1.5 2.41401 0 0
4:35 am 04:35 Clear with Mist and Fog 34 1 N/A N/A W 3 6 29.97 1015 3 4.82802 0 0
4:55 am 04:55 Mostly Cloudy with Fog 36 2 N/A N/A Calm 29.97 1015 0.5 0.80467 0 0
5:15 am 05:15 Mostly Cloudy with Fog 34 1 N/A N/A Calm 29.96 1015 0.5 0.80467 0 0
5:35 am 05:35 Clear with Mist and Fog 34 1 N/A N/A Calm 29.96 1015 3 4.82802 0 0
5:55 am 05:55 Clear with Mist and Fog 34 1 N/A N/A Calm 29.96 1015 3 4.82802 0 0
6:15 am 06:15 Cloudy with Fog 34 1 N/A N/A Calm 29.97 1015 0.5 0.80467 0 0
6:35 am 06:35 Mostly Cloudy with Mist and Fog 32 0 N/A N/A Calm 29.97 1015 0.75 1.207005 0 0
6:55 am 06:55 Mostly Cloudy with Fog 34 1 N/A N/A Calm 29.97 1015 N/A 0 0
7:15 am 07:15 Mostly Cloudy with Fog 34 1 N/A N/A Calm 29.98 1015 N/A 0 0
7:35 am 07:35 Mostly Cloudy with Fog 34 1 N/A N/A Calm 29.98 1015 0.25 0.402335 0 0
7:55 am 07:55 Sunny with Mist and Fog 34 1 N/A N/A Calm 29.98 1015 2 3.21868 0 0
8:15 am 08:15 Hazy 37 3 N/A N/A Calm 29.99 1015 5 8.0467 0 0
8:35 am 08:35 Sunny 39 4 N/A N/A Calm 29.99 1016 10 16.0934 0 0
8:55 am 08:55 Sunny 41 5 N/A N/A Calm 29.98 1015 10 16.0934 0 0
9:15 am 09:15 Sunny 43 6 42 5.3 95 95 Calm 29.99 1016 10 16.0934 0 0
9:35 am 09:35 Sunny 45 7.4 41 5.1 86 86 S 3 6 29.98 1015 10 16.0934 0 0
9:55 am 09:55 Sunny 47 8.2 40 4.6 78 78 Calm 29.97 1015 10 16.0934 0 0
10:15 am 10:15 Sunny 48 8.9 40 4.3 73 73 Calm 29.97 1015 10 16.0934 0 0
10:35 am 10:35 Sunny 50 10 38 3.2 63 63 S 3 6 29.97 1015 10 16.0934 0 0
10:55 am 10:55 Sunny 54 12.1 38 3.4 56 56 S 5 7 29.95 1014 10 16.0934 0 0
11:15 am 11:15 Sunny 55 12.9 30 -0.9 39 39 W 10 17 29.95 1014 10 16.0934 0 0
11:35 am 11:35 Sunny 56 13.5 31 -0.6 38 38 NW 10 17 29.95 1014 10 16.0934 0 0
11:55 am 11:55 Sunny 57 13.7 31 -0.3 38 38 WNW 9 15 29.95 1014 10 16.0934 0 0
12:15 pm 12:15 Sunny 57 13.9 28 -2 34 34 NW 6 9 29.95 1014 10 16.0934 0 0
12:35 pm 12:35 Sunny 58 14.4 29 -1.6 33 33 W 12 19 29.94 1014 10 16.0934 0 0
12:55 pm 12:55 Sunny 58 14.3 26 -3.3 30 30 W 10 17 29.94 1014 10 16.0934 0 0
1:15 pm 13:15 Sunny 59 15.1 28 -2.3 30 30 W 13 20 29.94 1014 10 16.0934 0 0
1:35 pm 13:35 Sunny 60 15.6 26 -3.3 27 27 WNW 13 20 29.93 1013 10 16.0934 0 0
1:55 pm 13:55 Sunny 61 16 25 -4 25 25 W 14 22 29.92 1013 10 16.0934 0 0
2:15 pm 14:15 Sunny 62 16.4 25 -4 25 25 W 15 24 29.91 1013 10 16.0934 0 0
2:35 pm 14:35 Sunny 61 16.2 26 -3.6 26 26 W 13 20 29.91 1013 10 16.0934 0 0
2:55 pm 14:55 Sunny 62 16.6 27 -3 26 26 WNW 13 20 29.91 1013 10 16.0934 0 0
3:15 pm 15:15 Sunny 62 16.7 27 -2.9 26 26 W 13 20 29.9 1013 10 16.0934 0 0
3:35 pm 15:35 Sunny 62 16.8 27 -2.7 26 26 W 10 17 29.9 1013 10 16.0934 0 0
3:55 pm 15:55 Sunny 62 16.9 27 -2.7 26 26 WNW 12 19 29.89 1012 10 16.0934 0 0
4:15 pm 16:15 Sunny 63 17 29 -1.9 28 28 NW 13 20 29.88 1012 10 16.0934 0 0
4:35 pm 16:35 Sunny 63 17 27 -2.8 26 26 W 14 22 29.88 1012 10 16.0934 0 0
4:55 pm 16:55 Sunny 62 16.6 29 -1.6 29 29 NW 9 15 29.87 1012 10 16.0934 0 0
5:15 pm 17:15 Sunny 63 17 31 -0.6 30 30 WNW 10 17 29.87 1012 10 16.0934 0 0
5:35 pm 17:35 Sunny 62 16.9 29 -1.4 29 29 W 8 13 29.88 1012 10 16.0934 0 0
5:55 pm 17:55 Sunny 62 16.8 31 -0.4 31 31 WNW 8 13 29.88 1012 10 16.0934 0 0
6:15 pm 18:15 Partly Cloudy 62 16.7 31 -0.6 31 31 NW 7 11 29.88 1012 10 16.0934 0 0
6:35 pm 18:35 Sunny 62 16.7 31 -0.5 31 31 NNW 8 13 29.88 1012 10 16.0934 0 0
6:55 pm 18:55 Sunny 61 16.3 30 -0.9 31 31 NW 7 11 29.87 1012 10 16.0934 0 0
7:15 pm 19:15 Sunny 61 16 31 -0.7 32 32 N 6 9 29.87 1012 10 16.0934 0 0
7:35 pm 19:35 Sunny 60 15.5 31 -0.6 33 33 N 6 9 29.88 1012 10 16.0934 0 0
7:55 pm 19:55 Sunny 58 14.6 31 -0.8 35 35 NNW 5 7 29.88 1012 10 16.0934 0 0
8:15 pm 20:15 Sunny 58 14.7 29 -1.6 33 33 N 3 6 29.88 1012 10 16.0934 0 0
8:35 pm 20:35 Clear 52 11.2 39 4.1 62 62 Calm 29.9 1012 10 16.0934 0 0
8:55 pm 20:55 Clear 49 9.5 39 3.8 68 68 Calm 29.9 1013 10 16.0934 0 0
9:15 pm 21:15 Clear 49 9.4 38 3.4 66 66 Calm 29.91 1013 10 16.0934 0 0
9:35 pm 21:35 Clear 47 8.5 38 3.6 72 72 NNE 3 6 29.91 1013 10 16.0934 0 0
9:55 pm 21:55 Clear 43 6.2 38 3.2 81 81 NNW 5 7 29.92 1013 10 16.0934 0 0
10:15 pm 22:15 Clear 44 6.8 37 2.8 76 76 N 3 6 29.93 1013 10 16.0934 0 0
10:35 pm 22:35 Clear 43 6.1 36 2.2 76 76 NNE 3 6 29.93 1014 10 16.0934 0 0
10:55 pm 22:55 Clear 44 6.5 36 2.4 75 75 N 3 6 29.93 1013 10 16.0934 0 0
11:15 pm 23:15 Clear 44 6.5 37 2.8 77 77 Calm 29.93 1013 10 16.0934 0 0
11:35 pm 23:35 Clear 42 5.3 38 3.2 86 86 WNW 3 6 29.94 1014 10 16.0934 0 0
11:55 pm 23:55 Clear 42 5.8 37 2.5 80 80 Calm 29.93 1014 10 16.0934 0 0

Powered by AerisWeather